Date,TemperatureHighF,TemperatureAvgF,TemperatureLowF,DewpointHighF,DewpointAvgF,DewpointLowF,HumidityHigh,HumidityAvg,HumidityLow,PressureMaxIn,PressureMinIn,WindSpeedMaxMPH,WindSpeedAvgMPH,GustSpeedMaxMPH,PrecipitationSumIn
2013-10-1,69.3,52.8,46.9,64.9,52.2,46.7,99,98,83,29.95,29.86,7,1,9,0.00
2013-10-2,82.0,64.5,25.9,55.6,49.4,21.1,98,66,23,29.99,29.80,6,1,6,0.00
2013-10-3,77.7,64.1,51.6,68.9,60.9,51.3,99,90,72,29.99,29.84,9,2,14,0.00
2013-10-4,79.3,70.7,64.9,69.5,66.6,64.0,99,88,68,29.93,29.86,6,2,9,0.01
2013-10-5,75.4,68.2,63.9,70.6,66.6,63.0,99,95,84,29.94,29.75,7,3,10,1.63
2013-10-6,70.2,65.0,54.9,68.8,63.6,53.9,99,95,83,29.75,29.55,13,4,19,0.18
2013-10-7,60.3,51.3,43.2,54.0,46.8,41.7,98,85,61,30.05,29.63,10,4,19,0.01
2013-10-8,69.1,51.9,38.5,56.6,43.8,21.1,99,79,43,30.21,29.52,8,2,13,0.00
2013-10-9,71.6,53.3,39.2,58.5,45.9,38.9,99,80,39,29.98,29.83,10,2,14,0.00
2013-10-10,74.1,54.0,40.3,60.2,45.5,40.0,99,79,36,29.91,29.74,8,1,10,0.00
2013-10-11,75.7,54.6,37.6,57.0,47.1,37.3,99,80,42,29.83,29.68,5,1,8,0.00
2013-10-12,78.3,60.4,45.9,65.8,52.4,45.1,99,79,36,29.77,29.63,11,2,13,0.00
2013-10-13,69.3,58.8,44.2,60.0,47.9,36.4,99,72,32,30.00,29.72,8,2,11,0.00
2013-10-14,68.2,51.5,40.6,50.8,43.9,40.4,99,79,43,30.07,29.90,5,1,8,0.00
2013-10-15,63.3,48.3,39.0,58.1,46.7,38.8,99,95,83,29.92,29.59,10,2,13,0.00
2013-10-16,60.4,54.6,25.9,52.9,47.3,21.1,96,77,61,30.36,29.92,9,5,15,0.00
2013-10-17,51.8,49.8,46.4,50.5,47.9,45.1,99,93,86,30.00,29.83,8,3,14,0.22
2013-10-18,64.9,51.2,39.6,47.9,43.5,38.7,99,78,41,30.00,29.90,8,3,14,0.01
2013-10-19,46.9,43.5,39.2,44.6,41.5,38.0,99,92,81,30.00,29.83,8,3,17,0.25
2013-10-20,60.6,48.8,37.9,46.5,41.3,37.4,99,78,45,29.99,29.92,10,3,16,0.02
2013-10-21,55.6,50.1,41.2,49.0,43.6,21.1,92,79,64,29.99,29.89,11,5,14,0.02
2013-10-22,51.4,41.7,32.4,37.7,30.9,26.7,83,66,45,30.05,29.97,13,4,17,0.00
2013-10-23,48.7,38.4,29.7,38.6,31.2,24.0,99,77,42,30.07,29.95,9,3,13,0.00
2013-10-24,47.8,37.7,25.9,35.3,31.0,21.1,94,78,44,30.25,29.66,10,4,17,0.00
2013-10-25,47.7,38.8,31.6,37.3,31.0,27.3,96,75,50,30.12,29.90,8,4,12,0.00
2013-10-26,51.4,43.2,36.1,40.6,32.5,27.1,96,67,52,29.91,29.56,13,6,21,0.11
2013-10-27,54.3,40.3,29.8,39.6,32.1,28.3,99,75,42,29.85,29.73,8,2,13,0.00
2013-10-28,51.8,40.3,30.2,41.4,33.8,27.5,97,78,63,30.18,29.83,6,2,8,0.00
2013-10-29,52.2,43.4,34.5,39.1,34.9,28.5,84,72,56,30.23,30.03,6,2,10,0.00
2013-10-30,64.8,47.8,31.6,52.8,39.7,29.3,98,76,48,30.03,29.74,9,3,11,0.13
2013-10-31,61.3,58.4,25.9,60.0,57.4,21.1,99,96,82,30.59,29.62,14,7,20,8.51